Date String (YYYY-MM-DD hh:mm:ss) UTC,Instrument flags,Ambient pressure (hPa),Sample flow (lpm),Bypass flow (lpm),Sample temperature (°C),Ambient temperature (°C),ASC tube jacket temperature (°C),LED temperature (°C),Box temperature (°C),Sample RH (%),Span deviation,Mass concentration (μg/m³),Mass concentration (μg/m³),Mass concentration (μg/m³)
DateTimeUTC,F1_M11,P_M11,Q1_M11,Q2_M11,T1_M11,T2_M11,T3_M11,T4_M11,T5_M11,U1_M11,ZSPAN_M11,X0_M11,X2_M11,X1_M11
2022-05-28 17:00:00,,0816.6,4.99,0.00,29.7,28.6,00.0,38.6,31.6,16.6,0000.0,0013.50,0005.82,0004.81
2022-05-28 17:01:00,,0816.6,5.01,0.00,29.7,28.7,00.0,38.6,31.6,17.6,0000.0,0013.19,0005.88,0004.82
2022-05-28 17:02:00,,0816.6,5.01,0.00,29.8,28.7,00.0,38.6,31.7,17.7,0000.0,0013.11,0005.89,0004.84
2022-05-28 17:03:00,,0816.6,5.00,0.00,29.8,28.8,00.0,38.6,31.7,18.0,0000.0,0013.44,0005.95,0004.85
2022-05-28 17:04:00,,0816.7,5.00,0.00,29.8,28.9,00.0,38.6,31.7,18.0,0000.0,0013.29,0005.96,0004.86
2022-05-28 17:05:00,,0816.7,5.00,0.00,29.9,28.9,00.0,38.7,31.8,19.1,0000.0,0012.36,0005.96,0004.86
2022-05-28 17:06:00,,0816.7,5.00,0.00,29.9,29.0,00.0,38.7,31.8,18.7,0000.0,0012.28,0005.97,0004.85
2022-05-28 17:07:00,,0816.7,5.00,0.00,29.9,28.8,00.0,38.7,31.8,18.7,0000.0,0012.65,0005.98,0004.85
2022-05-28 17:08:00,,0816.7,5.01,0.00,29.8,27.8,00.0,38.6,31.5,18.7,0000.0,0012.57,0005.96,0004.85
2022-05-28 17:09:00,,0816.7,4.99,0.00,29.7,27.2,00.0,38.6,31.3,18.1,0000.0,0012.55,0005.92,0004.85
2022-05-28 17:10:00,,0816.7,5.00,0.00,29.6,27.1,00.0,38.5,31.2,19.0,0000.0,0012.51,0005.93,0004.85
2022-05-28 17:11:00,,0816.7,4.99,0.00,29.6,27.2,00.0,38.5,31.2,19.2,0000.0,0012.54,0005.97,0004.86
2022-05-28 17:12:00,,0816.7,5.01,0.00,29.5,27.3,00.0,38.5,31.2,19.2,0000.0,0012.29,0005.90,0004.85
2022-05-28 17:13:00,,0816.7,5.00,0.00,29.5,27.5,00.0,38.5,31.3,18.7,0000.0,0012.10,0005.90,0004.83
2022-05-28 17:14:00,,0816.7,4.99,0.00,29.5,27.7,00.0,38.5,31.3,18.2,0000.0,0011.92,0005.96,0004.84
2022-05-28 17:15:00,,0816.6,4.99,0.00,29.5,27.9,00.0,38.5,31.3,18.5,0000.0,0011.89,0006.00,0004.84
2022-05-28 17:16:00,,0816.6,5.00,0.00,29.5,28.0,00.0,38.5,31.4,18.4,0000.0,0012.09,0006.04,0004.86
2022-05-28 17:17:00,,0816.6,5.01,0.00,29.6,28.2,00.0,38.5,31.4,18.6,0000.0,0011.78,0006.02,0004.86
2022-05-28 17:18:00,,0816.5,5.01,0.00,29.6,28.3,00.0,38.5,31.4,18.8,0000.0,0011.33,0006.01,0004.87
2022-05-28 17:19:00,,0816.5,5.00,0.00,29.6,28.4,00.0,38.5,31.5,18.4,0000.0,0012.54,0006.04,0004.88
2022-05-28 17:20:00,,0816.5,5.00,0.00,29.6,28.5,00.0,38.5,31.5,18.6,0000.0,0013.24,0006.10,0004.89
2022-05-28 17:21:00,,0816.6,5.00,0.00,29.7,28.6,00.0,38.5,31.6,19.2,0000.0,0013.68,0006.15,0004.90
2022-05-28 17:22:00,,0816.5,5.00,0.00,29.7,28.7,00.0,38.5,31.6,18.8,0000.0,0014.58,0006.14,0004.90
2022-05-28 17:23:00,,0816.5,5.01,0.00,29.7,28.8,00.0,38.5,31.6,18.7,0000.0,0015.32,0006.20,0004.91
2022-05-28 17:24:00,,0816.5,5.01,0.00,29.7,28.8,00.0,38.5,31.7,19.0,0000.0,0015.38,0006.20,0004.92
2022-05-28 17:25:00,,0816.5,4.99,0.00,29.8,28.9,00.0,38.6,31.7,18.6,0000.0,0015.15,0006.11,0004.91
2022-05-28 17:26:00,,0816.5,5.00,0.00,29.8,28.9,00.0,38.6,31.7,18.7,0000.0,0015.20,0006.07,0004.91
2022-05-28 17:27:00,,0816.5,5.00,0.00,29.8,28.9,00.0,38.6,31.7,19.0,0000.0,0015.21,0006.05,0004.91
2022-05-28 17:28:00,,0816.5,5.00,0.00,29.8,28.1,00.0,38.5,31.5,18.9,0000.0,0015.09,0006.10,0004.93
2022-05-28 17:29:00,,0816.5,5.00,0.00,29.7,27.3,00.0,38.5,31.3,19.1,0000.0,0014.84,0006.08,0004.94
2022-05-28 17:30:00,,0816.5,5.00,0.00,29.6,27.1,00.0,38.4,31.2,20.1,0000.0,0014.23,0006.13,0004.96
2022-05-28 17:31:00,,0816.5,5.01,0.00,29.5,27.2,00.0,38.4,31.2,20.4,0000.0,0014.48,0006.16,0004.99
2022-05-28 17:32:00,,0816.5,4.98,0.00,29.5,27.3,00.0,38.4,31.2,20.6,0000.0,0014.20,0006.15,0005.03
2022-05-28 17:33:00,,0816.4,5.01,0.00,29.5,27.5,00.0,38.4,31.2,20.7,0000.0,0013.57,0006.20,0005.07
2022-05-28 17:34:00,,0816.4,5.00,0.00,29.5,27.7,00.0,38.4,31.3,20.5,0000.0,0013.76,0006.27,0005.12
2022-05-28 17:35:00,,0816.5,5.00,0.00,29.5,27.8,00.0,38.4,31.3,20.8,0000.0,0013.93,0006.29,0005.15
2022-05-28 17:36:00,,0816.4,5.01,0.00,29.5,28.0,00.0,38.4,31.3,20.3,0000.0,0014.18,0006.36,0005.20
2022-05-28 17:37:00,,0816.5,5.00,0.00,29.5,28.1,00.0,38.4,31.4,20.4,0000.0,0015.05,0006.45,0005.25
2022-05-28 17:38:00,,0816.4,5.00,0.00,29.5,28.3,00.0,38.4,31.4,20.3,0000.0,0014.93,0006.50,0005.29
2022-05-28 17:39:00,,0816.4,5.00,0.00,29.5,28.4,00.0,38.4,31.4,19.9,0000.0,0014.66,0006.47,0005.32
2022-05-28 17:40:00,,0816.4,5.00,0.00,29.6,28.5,00.0,38.4,31.5,20.8,0000.0,0014.68,0006.50,0005.35
2022-05-28 17:41:00,,0816.4,4.99,0.00,29.6,28.6,00.0,38.4,31.5,20.0,0000.0,0015.07,0006.50,0005.39
2022-05-28 17:42:00,,0816.4,4.99,0.00,29.6,28.7,00.0,38.5,31.6,20.8,0000.0,0014.91,0006.50,0005.42
2022-05-28 17:43:00,,0816.4,5.00,0.00,29.7,28.7,00.0,38.5,31.6,20.8,0000.0,0015.39,0006.53,0005.44
2022-05-28 17:44:00,,0816.4,5.01,0.00,29.7,28.8,00.0,38.5,31.7,20.1,0000.0,0015.52,0006.58,0005.47
2022-05-28 17:45:00,,0816.4,5.01,0.00,29.7,28.9,00.0,38.5,31.7,18.6,0000.0,0014.60,0006.56,0005.49
2022-05-28 17:46:00,,0816.4,5.00,0.00,29.8,28.9,00.0,38.5,31.7,19.1,0000.0,0015.05,0006.60,0005.53
2022-05-28 17:47:00,,0816.4,4.99,0.00,29.8,28.7,00.0,38.5,31.7,19.2,0000.0,0015.79,0006.63,0005.56
2022-05-28 17:48:00,,0816.4,5.01,0.00,29.7,27.8,00.0,38.5,31.4,20.3,0000.0,0014.98,0006.62,0005.57
2022-05-28 17:49:00,,0816.4,5.00,0.00,29.6,27.2,00.0,38.4,31.2,20.2,0000.0,0015.01,0006.63,0005.58
2022-05-28 17:50:00,,0816.5,5.00,0.00,29.6,27.2,00.0,38.4,31.2,21.1,0000.0,0016.02,0006.68,0005.58
2022-05-28 17:51:00,,0816.4,4.99,0.00,29.5,27.2,00.0,38.4,31.2,20.9,0000.0,0016.44,0006.69,0005.58
2022-05-28 17:52:00,,0816.4,5.02,0.00,29.5,27.4,00.0,38.4,31.2,20.3,0000.0,0016.38,0006.75,0005.59
2022-05-28 17:53:00,,0816.3,4.99,0.00,29.4,27.6,00.0,38.4,31.2,20.3,0000.0,0015.96,0006.78,0005.59
2022-05-28 17:54:00,,0816.4,5.01,0.00,29.4,27.7,00.0,38.4,31.3,16.8,0000.0,0015.62,0006.76,0005.58
2022-05-28 17:55:00,,0816.3,5.00,0.00,29.5,27.9,00.0,38.4,31.3,16.8,0000.0,0015.60,0006.70,0005.59
2022-05-28 17:56:00,,0816.3,5.00,0.00,29.5,28.1,00.0,38.4,31.3,16.5,0000.0,0016.28,0006.68,0005.58
2022-05-28 17:57:00,,0816.2,4.99,0.00,29.5,28.2,00.0,38.4,31.4,16.9,0000.0,0016.15,0006.71,0005.57
2022-05-28 17:58:00,,0816.2,5.00,0.00,29.5,28.3,00.0,38.4,31.4,17.5,0000.0,0016.14,0006.70,0005.57
2022-05-28 17:59:00,,0816.1,5.00,0.00,29.5,28.4,00.0,38.4,31.4,17.4,0000.0,0016.08,0006.70,0005.58
